Regional Weather Roundup
Issued by NWS

Home | Current Version | Previous Version | Graphics & Text | Print | Product List | Glossary On
Versions: 1 2 3 4 5 6 7 8 9 10 11 12 13 14 15 16 17 18 19 20 21 22 23 24 25 26 27 28 29 30 31 32 33 34 35 36 37 38 39 40 41 42 43 44 45 46 47 48 49 50
000
ASUS45 KTFX 050804
RWRMT
MONTANA HOURLY WEATHER ROUNDUP
NATIONAL WEATHER SERVICE GREAT FALLS MT
104 AM MST THU MAR 5 2015

NOTE: "FAIR" INDICATES FEW OR NO CLOUDS BELOW 12000 FEET WITH NO
SIGNIFICANT WEATHER AND/OR OBSTRUCTIONS TO VISIBILITY.

* THESE STATIONS ARE NOT UNDER NWS QUALITY CONTROL. THEY DO NOT
   REPORT WEATHER SUCH AS PRECIPITATION OR FOG.

MTZ001>007-043-050900-
WEST OF THE DIVIDE
CITY           SKY/WX    TMP DP  RH WIND       PRES   REMARKS
KALISPELL      PTCLDY    19  18  96 CALM      30.23S
MISSOULA       PTCLDY    23  14  68 E5        30.27S WCI  16
BUTTE          MOCLDY    23  10  57 CALM      30.15S
MULLAN PASS    PTCLDY    21   0  40 SW7       30.16S WCI  12
* ANACONDA     CLEAR     32   9  38 W9         N/A   WCI  24
* ESSEX        N/A       14   9  80 N/A        N/A
* LINCOLN      N/A       27   8  44 S4G11      N/A
* LOOKOUT PASS N/A       21   9  60 N/A        N/A
* POLSON       N/A       26  10  51 SE1        N/A
* RONAN APT    PTCLDY    28  18  66 N/A        N/A
* SEELEY LAKE  N/A       11   4  73 NE1        N/A
* THOMP F APT  PTCLDY    16   5  62 N3         N/A
$$

MTZ008-052>055-050900-
SOUTHWEST MONTANA
CITY           SKY/WX    TMP DP  RH WIND       PRES   REMARKS
BOZEMAN        PTCLDY    18  10  71 S6        30.15S WCI  10
DILLON         MOCLDY    28   9  45 S12       30.16S WCI  18
* W YELLOWSTON CLEAR      7  -2  66 SE1G6      N/A
* THREE FORKS  PTCLDY    19  10  68 N/A        N/A
* BOULDER HILL N/A       27   3  35 S2         N/A
* MONIDA PASS  N/A       14   6  70 SE13       N/A
* RAYNOLDS PAS N/A        8  -7  50 SE12       N/A   WCI  -7
* WHITEHALL    N/A       33   5  30 W12G18     N/A   WCI  24
* WISE RIVER   N/A       30   6  36 W12G18     N/A   WCI  20
$$

MTZ009>010-012-014-046-048-049-054-050900-
EAST SLOPES AND CENTRAL MONTANA
CITY           SKY/WX    TMP DP  RH WIND       PRES   REMARKS
CUT BANK       PTCLDY    28  10  47 W24G31    30.00R WCI  14
GREAT FALLS    CLEAR     27  14  58 SW14      30.04S WCI  16
HELENA         PTCLDY    36  10  34 W8        30.14R WCI  30
* DEARBORN     N/A       30  12  47 SW3        N/A
* EAST GLACIER N/A       29   6  37 W24G33     N/A   WCI  15
* MONARCH      N/A       24   4  42 SW12G17    N/A   WCI  13
* PENDROY      N/A       28  12  51 W16        N/A   WCI  16
* ROGERS PASS  N/A       23   8  52 SE6G19     N/A   WCI  16
* SWEET GRASS  N/A       29  11  47 W20G25     N/A   WCI  16
$$

MTZ011-013-016-021-035-040-045-047-050-051-050900-
NORTH CENTRAL MONTANA
CITY           SKY/WX    TMP DP  RH WIND       PRES   REMARKS
HAVRE          MOCLDY    27  14  58 SW15      30.00R WCI  15
LEWISTOWN      PTCLDY    19   9  65 SW12      30.03R WCI   6
* N BAR RANCH  CLEAR     16   3  56 CALM      30.01F
* CHESTER      N/A       23  11  60 SW3        N/A
* DENTON       N/A       23  12  63 W9         N/A   WCI  13
* GEYSER       N/A       29  11  47 SW19G24    N/A   WCI  16
* JUDITH GAP   N/A       21   6  52 N/A        N/A
* LOMA         N/A       25  13  60 SW6        N/A   WCI  18
$$

MTZ017>020-022>027-061-062-050900-
NORTHEAST MONTANA
CITY           SKY/WX    TMP DP  RH WIND       PRES   REMARKS
GLASGOW        CLOUDY    12   0  58 SE14      30.03F WCI  -4
GLENDIVE       CLEAR      5  -2  72 S10       30.11F WCI -10
JORDAN         CLEAR     16   7  67 VRB3      30.04F
SIDNEY         PTCLDY     0  -8  68 CALM      30.18F
WOLF POINT     CLEAR      3  -2  79 NE5       30.11F WCI  -7
* BEAVER HILL  N/A       11  -3  53 S17        N/A   WCI  -6
* CIRCLE       N/A       15   2  56 N/A        N/A
* LINDSAY DVD  N/A       10  -3  55 S10G17     N/A   WCI  -4
* NAVAJO       N/A        8  -5  55 S11G16     N/A   WCI  -7
* SACO         N/A       11   1  64 NE11       N/A   WCI  -3
$$

MTZ028>042-056>058-050900-
SOUTHCENTRAL AND SOUTHEAST MONTANA
CITY           SKY/WX    TMP DP  RH WIND       PRES   REMARKS
BAKER          CLEAR      5  -2  72 E5        30.12F WCI  -5
BILLINGS       PTCLDY    21   3  45 SW23      30.07R WCI   5
LIVINGSTON     MOCLDY    32   9  38 SW25G32   30.08S WCI  19
MILES CITY     CLEAR     10   0  64 N/A       30.10F
* LAUREL APT   PTCLDY    21   1  41 SW6        N/A   WCI  13
* ROUNDUP APT  CLEAR     21   3  45 SW6        N/A   WCI  13
* HYSHAM       N/A       18   2  49 W6         N/A   WCI  10
* REED POINT   N/A       18   8  65 SE4        N/A
* ROSCOE HILL  N/A       17  -4  39 E8         N/A   WCI   7
$$

REGIONAL REPORTS...DAKOTAS
CITY           SKY/WX    TMP DP  RH WIND       PRES   REMARKS
WILLISTON      CLEAR      1  -9  62 S5        30.17F WCI  -9
DICKINSON      PTCLDY     0  -8  68 S12       30.13F WCI -17
BEACH          CLEAR      1  -2  87 S9        30.13F WCI -14
CROSBY         CLEAR     -6 -13  71 S16       30.15F WCI -28
WATFORD CITY   CLEAR     -2  -9  72 SE3       30.15F
BISMARCK       PTCLDY    -6 -11  78 CALM      30.32F
GRAND FORKS    CLEAR    -15 -20  77 SW7       30.40R WCI -31
FARGO          CLEAR     -8 -15  71 SW7       30.43S WCI -23
BUFFALO SD     PTCLDY     3  -6  66 S10       30.07F WCI -12
RAPID CITY     CLEAR      7   0  73 S7        30.20F WCI  -5
$$

REGIONAL REPORTS...WYOMING/IDAHO/WASHINGTON
CITY           SKY/WX    TMP DP  RH WIND       PRES   REMARKS
GILLETTE       CLEAR     18   0  45 SW12      30.08S WCI   5
SHERIDAN       PTCLDY     0  -9  65 CALM      30.08F
CODY           CLEAR     19   9  65 NW3G21    30.06R
YELLOWSTONE LA PTCLDY    -6  -9  87 CALM      30.20S
SALMON         CLEAR     18  12  77 CALM      30.29R
MULLAN PASS    PTCLDY    21   0  40 SW7       30.16S WCI  12
SAND POINT     PTCLDY    27  21  78 CALM      30.28S
SPOKANE        PTCLDY    32  16  52 SE7       30.25S WCI  25

$$



USA.gov is the U.S. government's official web portal to all federal, state and local government web resources and services.